Regional Weather Roundup
Issued by NWS

Home | Current Version | Previous Version | Text Only | Print | Product List | Glossary Off
Versions: 1 2 3 4 5 6 7 8 9 10 11 12 13 14 15 16 17 18 19 20 21 22 23 24 25 26 27 28 29 30 31 32 33 34 35 36 37 38 39 40 41 42 43 44 45 46 47 48 49 50

000
ASUS43 KLMK 201110
RWRKY
KENTUCKY REGIONAL WEATHER ROUNDUP
NATIONAL WEATHER SERVICE LOUISVILLE KY
700 AM EDT WED AUG 20 2014

NOTE "FAIR" INDICATES FEW OR NO CLOUDS BELOW 12,000 FEET
WITH NO SIGNIFICANT WEATHER AND/OR OBSTRUCTIONS TO VISIBILITY.

KYZ001>023-026-027-061>063-070>075-201200-
WESTERN AND SOUTH CENTRAL KENTUCKY

CITY           SKY/WX    TMP DP  RH WIND       PRES   REMARKS
PADUCAH        CLEAR     77  74  90 CALM      29.89R FOG
HENDERSON      CLEAR     66  64  94 CALM      29.88R
OWENSBORO      CLEAR     73  73 100 CALM      29.90R
HOPKINSVILLE   CLEAR     74  74 100 S3        29.92R
BOWLING GREEN  CLEAR     74  71  91 SW3       29.92R
GLASGOW        CLEAR     71  71 100 CALM      29.93R FOG
$$

KYZ024-025-028>034-038-045-046-053-201200-
NORTH CENTRAL KENTUCKY

CITY           SKY/WX    TMP DP  RH WIND       PRES   REMARKS
LOUISVILLE/SDF PTCLDY    72  68  87 VRB6      29.90R
LOUISVILLE/LOU CLEAR     71  68  90 CALM      29.91R
FORT KNOX      CLEAR     68  57  68 SW2       29.91R
$$

KYZ035>037-039>044-047>052-055>060-089>105-201200-
NORTHEAST KENTUCKY

CITY           SKY/WX    TMP DP  RH WIND       PRES   REMARKS
LEXINGTON      CLOUDY    72  66  81 S8        29.94R
COVINGTON      MOCLDY    66  64  93 CALM      29.91R
FRANKFORT      MOCLDY    69  65  86 S5        29.92R
$$

KYZ054-064>069-076>088-106>120-201200-
SOUTHEAST KENTUCKY

CITY           SKY/WX    TMP DP  RH WIND       PRES   REMARKS
JACKSON        FOG       67  65  93 CALM      29.97S VSB 3/4
LONDON         MOCLDY    72  68  87 S3        29.97R
SOMERSET       MOCLDY    70  70 100 CALM      29.96R FOG
MIDDLESBORO    CLEAR     66  66  99 CALM      29.98S FOG
MONTICELLO     MOSUNNY   73  71  93 CALM      29.97R
$$



USA.gov is the U.S. government's official web portal to all federal, state and local government web resources and services.